Location: Esterri de Aneo
(42.6284°N, 1.1223°E)
Time: 09:42:51
(UTC+00:00)

COSMOS 2455 - Pass Details

Date: 11 December 2025
Orbit: 898 x 910 km, 67.1° (Epoch: 21 January)

Event Time Altitude Azimuth Distance (km) Brightness Sun altitude
Rises 19:05:24 0° 206° (SSW) 3,514 6.3 -29.1°
Reaches altitude 10° 19:07:54 10° 206° (SSW) 2,578 5.5 -29.6°
Enters shadow 19:12:46 61° 199° (SSW) 1,020 3.1 -30.5°
